Location: Isles
(48.9125°N, 2.8272°E)
Time: 10:25:28
(UTC+00:00)

Cosmos 2360 Rocket - Pass Details

Date: 03 February 2023
Orbit: 832 x 846 km, 71.0° (Epoch: 29 March)

Event Time Altitude Azimuth Distance (km) Brightness Sun altitude
Rises 18:02:17 0° 185° (S) 3,372 5.5 -12.3°
Reaches altitude 10° 18:04:48 10° 178° (S) 2,445 4.7 -12.7°
Maximum altitude 18:10:04 43° 109° (ESE) 1,160 2.5 -13.5°
Enters shadow 18:15:02 12° 40° (NE) 2,346 4.1 -14.3°
